SCOUT B DEB, 2516

Orbit data source: Space-Track

SCOUT B DEB, 2516 is space debris in LEO originally from a launch on Fri, 10 Jun 1966 UTC launched from the Wallops Island (WLPIS). Debris objects in space refer to the collection of defunct objects orbiting the Earth. Examples of debris include non-operational satellites, rocket bodies, and fragments generated from explosions, collisions, or faulty payload assembly.

Loading next visibility...
Identifier
2516, 1966-052D
Orbit
LEO
Country
Flag of USUS
Related business
Manufacturer
Unknown
Mission
Spacecraft
Bus & Motor
Unknown
Mass
Unknown
Launch date (UTC)
1966-06-10 (60 years ago)
Launch vehicle
Unknown
Launch site
Wallops Island (WLPIS)
Object type
Payload
Rocket body
Debris
Shape & HBR
Unknown shape, 0.1 m
Radar Cross Section
Small (<0.1 m²)

Expand to show TLE details & history
Last TLE update: 6 days ago

TLE from 6 days ago
0 SCOUT B DEB
1 02516U 66052D   26115.61390030  .00000147  00000-0  36710-3 0  9992
2 02516  41.0136 198.9400 2219490 153.6629 219.6388 10.00984954318820
Epoch: 2026-04-25T14:44Z
TLE epoch observation values (Epoch: 2026-04-25T14:44:00.985Z)
Latitude
-0.00003°
Longitude
124.30612°
Altitude
4,413.579 km
Speed
5.483 km/s
True Right ascension
13h 15m 45s
True Declination
0° 00' 00"
Sunlit
Object was in full shadow at epoch
Visualization orbit readout
Latitude
Unknown
Longitude
Unknown
Altitude
Unknown
Speed
Unknown
Apparent Right ascension
Unknown
Apparent Declination
Unknown
Sunlit
N/A
Visualization observer readout
Local Sidereal Time
08:32:16
Azimuth
Unknown
Elevation
Unknown
Doppler factor
Unknown
Orbital elements
Apogee altitude
4,737.264 km
Perigee altitude
699.367 km
Semi-major axis
9,096.453 km
Eccentricity
0.22195
Inclination
41.0136°
RAAN
198.94°
Arg. of periapsis
153.6629°
True anomaly
206.39826°
Mean anomaly
219.6388°
Eccentric anomaly
212.75789°
Mean motion
2.5017 °/min
Orbital period
143.9 mins
BSTAR
0.0003671
Loading maneuver chart data...
Computing Atmospheric mass density...
Loading historical data...
Loading historical data...
Loading historical data...
Loading historical data...
Loading historical data...
Loading historical data...
Loading historical data...
Other satellites on launch #52 in the year 1966 (1966-06-10 UTC)

Documentation

Showing up to 5 results
|